TimeMDT,TemperatureF,Dew PointF,Humidity,Sea Level PressureIn,VisibilityMPH,Wind Direction,Wind SpeedMPH,Gust SpeedMPH,PrecipitationIn,Events,Conditions,WindDirDegrees,DateUTC
12:15 AM,21.4,13.6,72,30.17,10.0,NNW,9.2,-,N/A,,Clear,340,2013-03-24 06:15:00
12:35 AM,21.2,13.6,73,30.17,10.0,NNW,13.8,17.3,N/A,,Clear,340,2013-03-24 06:35:00
12:55 AM,21.0,13.6,73,30.18,10.0,NNW,11.5,-,N/A,,Clear,340,2013-03-24 06:55:00
1:35 AM,19.9,12.9,74,30.18,10.0,NNW,9.2,-,N/A,,Clear,330,2013-03-24 07:35:00
1:55 AM,19.4,12.6,75,30.17,10.0,NNW,8.1,-,N/A,,Clear,330,2013-03-24 07:55:00
2:15 AM,19.4,12.2,74,30.16,10.0,North,9.2,-,N/A,,Clear,350,2013-03-24 08:15:00
2:35 AM,19.8,12.2,72,30.15,10.0,North,11.5,-,N/A,,Clear,360,2013-03-24 08:35:00
2:55 AM,18.9,11.3,72,30.14,10.0,NNW,10.4,-,N/A,,Clear,340,2013-03-24 08:55:00
3:15 AM,17.2,10.4,75,30.14,10.0,NNW,8.1,-,N/A,,Clear,340,2013-03-24 09:15:00
3:35 AM,15.3,9.3,77,30.14,10.0,NW,8.1,-,N/A,,Clear,320,2013-03-24 09:35:00
3:55 AM,12.9,7.5,79,30.13,10.0,West,3.5,-,N/A,,Clear,270,2013-03-24 09:55:00
4:15 AM,12.2,7.0,80,30.13,10.0,WNW,4.6,-,N/A,,Clear,300,2013-03-24 10:15:00
4:35 AM,12.2,7.5,82,30.13,10.0,NNW,10.4,-,N/A,,Clear,330,2013-03-24 10:35:00
4:55 AM,12.2,7.0,80,30.14,10.0,NNW,8.1,-,N/A,,Clear,330,2013-03-24 10:55:00
5:15 AM,10.4,5.7,81,30.14,10.0,NW,4.6,-,N/A,,Clear,320,2013-03-24 11:15:00
5:35 AM,10.0,5.7,83,30.14,10.0,NW,4.6,-,N/A,,Clear,310,2013-03-24 11:35:00
5:55 AM,9.0,4.8,83,30.13,10.0,NW,5.8,-,N/A,,Clear,320,2013-03-24 11:55:00
6:15 AM,8.4,4.6,85,30.13,10.0,WNW,4.6,-,N/A,,Clear,290,2013-03-24 12:15:00
6:35 AM,5.9,1.9,84,30.13,10.0,SW,4.6,-,N/A,,Clear,230,2013-03-24 12:35:00
6:55 AM,5.9,2.7,87,30.13,10.0,WSW,4.6,-,N/A,,Clear,240,2013-03-24 12:55:00
7:15 AM,4.6,1.8,88,30.13,1.8,West,3.5,-,N/A,,Mist,260,2013-03-24 13:15:00
7:35 AM,5.7,2.3,86,30.13,10.0,West,8.1,-,N/A,,Clear,270,2013-03-24 13:35:00
7:55 AM,7.3,3.4,84,30.13,10.0,West,6.9,-,N/A,,Clear,260,2013-03-24 13:55:00
8:15 AM,8.6,4.8,85,30.14,10.0,West,5.8,-,N/A,,Clear,260,2013-03-24 14:15:00
8:35 AM,10.4,6.1,83,30.14,10.0,WSW,4.6,-,N/A,,Clear,250,2013-03-24 14:35:00
8:55 AM,11.7,6.8,81,30.14,10.0,West,4.6,-,N/A,,Clear,260,2013-03-24 14:55:00
9:15 AM,13.1,7.7,79,30.14,10.0,West,6.9,-,N/A,,Clear,260,2013-03-24 15:15:00
9:35 AM,14.0,8.4,78,30.14,10.0,WSW,5.8,-,N/A,,Clear,250,2013-03-24 15:35:00
9:55 AM,16.2,10.4,78,30.14,10.0,WSW,6.9,-,N/A,,Clear,250,2013-03-24 15:55:00
10:15 AM,19.2,12.6,75,30.14,10.0,West,3.5,-,N/A,,Clear,270,2013-03-24 16:15:00
10:35 AM,23.0,15.1,72,30.13,10.0,NW,9.2,-,N/A,,Clear,320,2013-03-24 16:35:00
10:55 AM,23.5,15.1,70,30.13,10.0,NNW,9.2,-,N/A,,Clear,330,2013-03-24 16:55:00
11:15 AM,24.8,16.2,70,30.14,10.0,NNW,10.4,-,N/A,,Clear,340,2013-03-24 17:15:00
11:35 AM,25.3,16.3,69,30.14,10.0,NNW,6.9,-,N/A,,Clear,340,2013-03-24 17:35:00
11:55 AM,26.1,16.9,68,30.13,10.0,NW,5.8,-,N/A,,Mostly Cloudy,320,2013-03-24 17:55:00
12:15 PM,26.6,16.9,67,30.12,10.0,Calm,Calm,-,N/A,Snow,Light Snow,0,2013-03-24 18:15:00
12:35 PM,27.9,17.6,65,30.11,10.0,Calm,Calm,-,0.01,,Overcast,0,2013-03-24 18:35:00
12:55 PM,28.6,16.9,62,30.11,10.0,Calm,Calm,-,0.01,,Overcast,0,2013-03-24 18:55:00
1:15 PM,28.4,17.8,64,30.10,10.0,Calm,Calm,-,N/A,,Overcast,0,2013-03-24 19:15:00
1:35 PM,32.5,14.0,46,30.09,10.0,NW,24.2,33.4,N/A,,Mostly Cloudy,320,2013-03-24 19:35:00
1:55 PM,32.4,14.0,47,30.08,10.0,North,23.0,32.2,N/A,,Mostly Cloudy,350,2013-03-24 19:55:00
2:15 PM,32.0,17.2,55,30.08,10.0,North,18.4,24.2,N/A,,Scattered Clouds,360,2013-03-24 20:15:00
2:35 PM,32.0,17.8,56,30.08,10.0,North,17.3,25.3,N/A,,Mostly Cloudy,360,2013-03-24 20:35:00
2:55 PM,32.9,13.8,45,30.07,10.0,NW,25.3,35.7,N/A,,Scattered Clouds,320,2013-03-24 20:55:00
3:15 PM,32.9,13.8,45,30.07,10.0,NW,24.2,-,N/A,,Scattered Clouds,320,2013-03-24 21:15:00
3:35 PM,30.0,18.0,61,30.08,10.0,NNW,20.7,32.2,N/A,,Mostly Cloudy,330,2013-03-24 21:35:00
3:55 PM,30.7,15.3,53,30.08,10.0,NNW,25.3,33.4,N/A,,Overcast,340,2013-03-24 21:55:00
4:15 PM,31.1,13.5,48,30.08,10.0,NNW,24.2,31.1,N/A,,Overcast,330,2013-03-24 22:15:00
4:35 PM,30.2,11.7,46,30.09,10.0,NNW,26.5,33.4,N/A,,Overcast,340,2013-03-24 22:35:00
4:55 PM,30.2,12.4,48,30.09,10.0,NNW,28.8,32.2,N/A,,Overcast,330,2013-03-24 22:55:00
5:15 PM,29.3,15.6,57,30.11,10.0,North,28.8,-,N/A,,Mostly Cloudy,350,2013-03-24 23:15:00
5:35 PM,27.3,17.6,67,30.12,10.0,North,27.6,31.1,N/A,,Scattered Clouds,360,2013-03-24 23:35:00
5:55 PM,26.2,17.1,68,30.13,10.0,NNW,20.7,-,N/A,,Clear,340,2013-03-24 23:55:00
6:15 PM,26.2,13.3,58,30.14,10.0,North,21.9,25.3,N/A,,Scattered Clouds,350,2013-03-25 00:15:00
6:35 PM,24.6,12.0,59,30.15,10.0,North,16.1,24.2,N/A,,Scattered Clouds,350,2013-03-25 00:35:00
6:55 PM,24.3,11.1,57,30.15,10.0,North,20.7,27.6,N/A,,Clear,350,2013-03-25 00:55:00
7:15 PM,23.5,12.2,62,30.16,10.0,North,19.6,24.2,N/A,,Clear,350,2013-03-25 01:15:00
7:35 PM,23.0,12.0,63,30.17,10.0,North,17.3,25.3,N/A,,Clear,360,2013-03-25 01:35:00
7:55 PM,22.1,11.7,64,30.18,10.0,North,13.8,-,N/A,,Clear,360,2013-03-25 01:55:00
8:15 PM,21.4,12.0,67,30.18,10.0,North,12.7,-,N/A,,Clear,360,2013-03-25 02:15:00
8:35 PM,21.2,11.7,67,30.18,10.0,North,15.0,20.7,N/A,,Clear,360,2013-03-25 02:35:00
8:55 PM,21.2,11.1,65,30.19,10.0,North,17.3,21.9,N/A,,Clear,360,2013-03-25 02:55:00
9:15 PM,21.0,10.4,64,30.20,10.0,North,17.3,-,N/A,,Clear,350,2013-03-25 03:15:00
9:35 PM,21.0,10.4,64,30.21,10.0,North,17.3,-,N/A,,Clear,350,2013-03-25 03:35:00
9:55 PM,20.7,10.4,65,30.22,10.0,North,16.1,-,N/A,,Clear,350,2013-03-25 03:55:00
10:15 PM,20.1,10.9,68,30.22,10.0,NNW,13.8,19.6,N/A,,Clear,340,2013-03-25 04:15:00
10:35 PM,19.9,11.1,69,30.22,10.0,North,17.3,-,N/A,,Clear,350,2013-03-25 04:35:00
10:55 PM,20.1,11.1,68,30.22,10.0,North,18.4,-,N/A,,Clear,350,2013-03-25 04:55:00
11:15 PM,19.4,11.3,71,30.22,10.0,NNW,13.8,20.7,N/A,,Clear,340,2013-03-25 05:15:00
11:35 PM,19.2,11.7,72,30.23,10.0,NNW,17.3,-,N/A,,Clear,340,2013-03-25 05:35:00
11:55 PM,19.2,11.3,71,30.23,10.0,NNW,13.8,-,N/A,,Clear,340,2013-03-25 05:55:00